Location: Unspecified
(0.0000°N, 0.0000°E)
Time: 20:40:07
(UTC+00:00)

ORBCOMM FM 119 - Pass Details

Date: 25 April 2026
Orbit: 697 x 697 km, 47.0° (Epoch: 9 May)

Event Time Altitude Azimuth Distance (km) Brightness Sun altitude
Rises 18:49:58 0° 187° (S) 3,069 ? -12.6°
Reaches altitude 10° 18:53:38 10° 160° (SSE) 2,150 ? -13.5°
Enters shadow 18:55:05 13° 144° (SE) 1,968 ? -13.9°
